STARLINK-11486, 62467

Orbit data source: Space-Track

STARLINK-11486, 62467 is a payload satellite owned by SpaceX/Seattle (US) in LEO that was launched on Tue, 31 Dec 2024 UTC via an FALCON 9 launch vehicle from the Air Force Eastern Test Range (AFETR). Payload-class satellites include a variety of spacecraft equipped with specific instruments for various scientific and technological missions. These include communications satellites like Starlink; space stations such as the ISS; scientific satellites like the Hubble; Earth observation satellites from companies like Planet Labs, Umbra, and HawkEye 360; GPS; miniature CubeSats for education and research; and military/defense satellites.

Loading next visibility...
Identifier
62467, 2024-254F
Orbit
LEO
Country
Flag of USUS
Related business
Manufacturer
SpaceX/Seattle
Mission
Operational Commercial Communications
Bus & Motor
STARLINK V2MD, Unknown motor
Mass
960 kg wet, ~910 kg dry
Launch date (UTC)
2024-12-31 (1 year ago)
Launch vehicle
FALCON 9
Launch site
Air Force Eastern Test Range (AFETR)
Object type
Payload
Rocket body
Debris
Shape & HBR
Box + 2 Pan, 18.1 m
Radar Cross Section
36.964 m², Large (>1 m²)

Expand to show TLE details & history
Last TLE update: 13 hours ago

TLE from 13 hours ago
0 STARLINK-11486
1 62467U 24254F   26034.13822560  .00288619  00000-0  21603-2 0  9992
2 62467  42.9989  71.5627 0001459 209.2206 150.8580 15.71007692 63965
Epoch: 2026-02-03T03:19Z
TLE epoch observation values (Epoch: 2026-02-03T03:19:02.691Z)
Latitude
-0.00005°
Longitude
-111.52203°
Altitude
356.645 km
Speed
7.697 km/s
True Right ascension
04h 46m 15s
True Declination
0° 00' 00"
Sunlit
Object was in full shadow at epoch
Visualization orbit readout
Latitude
Unknown
Longitude
Unknown
Altitude
Unknown
Speed
Unknown
Apparent Right ascension
Unknown
Apparent Declination
Unknown
Sunlit
N/A
Visualization observer readout
Local Sidereal Time
18:02:49
Azimuth
Unknown
Elevation
Unknown
Doppler factor
Unknown
Orbital elements
Apogee altitude
358.981 km
Perigee altitude
357.015 km
Semi-major axis
6,736.135 km
Eccentricity
0.00015
Inclination
42.9989°
RAAN
71.5627°
Arg. of periapsis
209.2206°
True anomaly
150.86614°
Mean anomaly
150.858°
Eccentric anomaly
150.86207°
Mean motion
3.92579 °/min
Orbital period
91.7 mins
BSTAR
0.0021603
Loading maneuver chart data...
Computing Atmospheric mass density...
Loading historical data...
Loading historical data...
Loading historical data...
Loading historical data...
Loading historical data...
Loading historical data...
Loading historical data...

Documentation

Showing up to 5 results
|